Location: Newark
(52.1752°N, 10.4140°W)
Time: 10:09:50
(UTC+00:00)

N. Korean satellite - Pass Details

Date: 24 November 2019
Orbit: 456 x 506 km, 97.2° (Epoch: 08 December)

Event Time Altitude Azimuth Distance (km) Brightness Sun altitude
Rises 07:05:38 0° 10° (N) 2,618 10.2 -10.6°
Reaches altitude 10° 07:07:45 10° 6° (N) 1,723 9.2 -10.3°
Maximum altitude 07:11:24 56° 288° (WNW) 600 6.7 -9.7°
Drops below altitude 10° 07:14:57 10° 210° (SSW) 1,685 9.2 -9.2°
Sets 07:17:01 0° 206° (SSW) 2,554 10.2 -8.9°
